EW1315 Weather Reports


time (UTC)temp
C
wind
direction
speed
KPH
gust
KPH
rain 1hr
cm
rain 24hr
cm
rain mn
cm
humidity
%
barometer
mb
20260507153003 15 155 1.6 3.2 0.00 0.00 0.00 51 1011.6
20260507152503 15 153 1.6 4.8 0.00 0.00 0.00 51 1011.4
20260507152003 15 145 1.6 4.8 0.00 0.00 0.00 51 1011.6
20260507151503 15 151 1.6 4.8 0.00 0.00 0.00 50 1011.4
20260507151003 15 166 1.6 4.8 0.00 0.00 0.00 51 1011.7
20260507150504 15 171 3.2 6.4 0.00 0.00 0.00 51 1011.6
20260507150004 15 175 3.2 8.0 0.00 0.00 0.00 51 1011.7
20260507145503 15 168 1.6 8.0 0.00 0.00 0.00 51 1011.6
20260507145003 15 163 1.6 4.8 0.00 0.00 0.00 50 1011.5
20260507144713 15 159 1.6 4.8 0.00 0.00 0.00 49 1011.8
20260507144003 15 154 1.6 4.8 0.00 0.00 0.00 49 1011.7
20260507143505 15 149 1.6 6.4 0.00 0.00 0.00 49 1011.7
20260507143003 15 158 1.6 6.4 0.00 0.00 0.00 49 1011.9
20260507142504 15 159 1.6 6.4 0.00 0.00 0.00 49 1011.9
20260507142003 15 162 3.2 8.0 0.00 0.00 0.00 49 1011.8
20260507141503 15 160 3.2 8.0 0.00 0.00 0.00 49 1011.9
20260507141003 15 159 1.6 8.0 0.00 0.00 0.00 48 1011.9
20260507140503 15 163 3.2 6.4 0.00 0.00 0.00 49 1012.0
20260507140003 16 162 3.2 6.4 0.00 0.00 0.00 48 1012.2
20260507135503 16 155 1.6 6.4 0.00 0.00 0.00 48 1012.0
20260507135215 16 148 1.6 4.8 0.00 0.00 0.00 47 1012.0
20260507134503 16 142 1.6 4.8 0.00 0.00 0.00 44 1012.0
20260507134216 16 148 1.6 4.8 0.00 0.00 0.00 45 1011.9
20260507133503 16 170 1.6 8.0 0.00 0.00 0.00 44 1011.8
20260507133212 16 167 3.2 8.0 0.00 0.00 0.00 42 1011.9
20260507132715 16 154 3.2 6.4 0.00 0.00 0.00 42 1011.8
20260507132003 17 150 3.2 9.7 0.00 0.00 0.00 41 1012.0
20260507131503 17 133 1.6 9.7 0.00 0.00 0.00 41 1011.9
20260507131003 17 119 1.6 6.4 0.00 0.00 0.00 39 1011.9
20260507130503 17 148 1.6 6.4 0.00 0.00 0.00 38 1011.8
20260507130215 17 149 1.6 6.4 0.00 0.00 0.00 40 1011.9
20260507125503 16 129 1.6 6.4 0.00 0.00 0.00 40 1011.9
20260507125003 16 120 1.6 6.4 0.00 0.00 0.00 40 1011.9
20260507124503 16 127 1.6 6.4 0.00 0.00 0.00 41 1012.0
20260507124217 17 154 1.6 6.4 0.00 0.00 0.00 40 1012.0
20260507123503 17 146 1.6 4.8 0.00 0.00 0.00 41 1012.1
20260507123003 17 141 1.6 8.0 0.00 0.00 0.00 42 1012.1
20260507122503 17 141 1.6 8.0 0.00 0.00 0.00 41 1011.9
20260507122004 17 152 1.6 11.3 0.00 0.00 0.00 41 1012.2
20260507121503 16 165 3.2 11.3 0.00 0.00 0.00 41 1012.1
20260507121003 17 162 1.6 8.0 0.00 0.00 0.00 40 1012.2
20260507120503 17 126 1.6 4.8 0.00 0.00 0.00 44 1012.4
20260507120004 16 109 1.6 4.8 0.00 0.00 0.00 48 1012.1
20260507115503 17 123 1.6 4.8 0.00 0.00 0.00 44 1012.2
20260507115003 17 158 1.6 8.0 0.00 0.00 0.00 42 1012.4
20260507114503 17 155 1.6 8.0 0.00 0.00 0.00 43 1012.2
20260507114003 16 141 1.6 6.4 0.00 0.00 0.00 42 1012.3
20260507113503 17 139 1.6 6.4 0.00 0.00 0.00 42 1012.4
20260507113214 16 134 1.6 8.0 0.00 0.00 0.00 46 1012.5
20260507112503 16 161 1.6 8.0 0.00 0.00 0.00 44 1012.4
20260507112004 17 164 1.6 6.4 0.00 0.00 0.00 49 1012.4
20260507111504 16 163 1.6 8.0 0.00 0.00 0.00 51 1012.4
20260507111003 16 159 1.6 8.0 0.00 0.00 0.00 51 1012.5
20260507110504 16 144 1.6 4.8 0.00 0.00 0.00 53 1012.4
20260507110003 15 118 1.6 4.8 0.00 0.00 0.00 53 1012.4
20260507105503 14 82 1.6 4.8 0.00 0.00 0.00 56 1012.6
20260507105003 13 106 1.6 4.8 0.00 0.00 0.00 54 1012.5
20260507104504 14 123 1.6 4.8 0.00 0.00 0.00 55 1012.6
20260507104004 15 126 1.6 6.4 0.00 0.00 0.00 56 1012.4
20260507103503 14 109 1.6 6.4 0.00 0.00 0.00 60 1012.6
20260507103214 14 104 1.6 4.8 0.00 0.00 0.00 60 1012.7
20260507102503 13 106 1.6 4.8 0.00 0.00 0.00 63 1012.6
20260507102215 13 108 1.6 4.8 0.00 0.00 0.00 62 1012.8
20260507101503 12 111 3.2 4.8 0.00 0.00 0.00 64 1012.7
20260507101003 12 110 1.6 4.8 0.00 0.00 0.00 66 1012.8
20260507100504 12 117 1.6 3.2 0.00 0.00 0.00 65 1013.0
20260507100003 12 124 1.6 3.2 0.00 0.00 0.00 65 1013.0
20260507095503 12 123 1.6 3.2 0.00 0.00 0.00 66 1012.9
20260507095003 12 126 1.6 4.8 0.00 0.00 0.00 67 1013.1
20260507094504 12 146 1.6 6.4 0.00 0.00 0.00 67 1013.0
20260507094004 12 138 1.6 6.4 0.00 0.00 0.00 68 1012.9
20260507093503 12 114 1.6 3.2 0.00 0.00 0.00 68 1013.2
20260507093003 11 117 1.6 4.8 0.00 0.00 0.00 69 1013.0
20260507092503 11 114 1.6 4.8 0.00 0.00 0.00 69 1012.9
20260507092003 11 106 1.6 3.2 0.00 0.00 0.00 68 1012.9
20260507091504 11 100 1.6 3.2 0.00 0.00 0.00 69 1012.9
20260507091003 10 96 1.6 3.2 0.00 0.00 0.00 71 1013.0
20260507090504 10 119 1.6 4.8 0.00 0.00 0.00 70 1013.0
20260507090004 11 124 1.6 4.8 0.00 0.00 0.00 69 1013.0
20260507085503 10 104 1.6 4.8 0.00 0.00 0.00 72 1013.0
20260507085003 10 97 1.6 3.2 0.00 0.00 0.00 73 1012.9
20260507084717 10 99 1.6 4.8 0.00 0.00 0.00 73 1012.9
20260507084214 10 105 1.6 4.8 0.00 0.00 0.00 74 1012.9
20260507083503 10 108 1.6 4.8 0.00 0.00 0.00 74 1013.0
20260507083215 10 105 1.6 4.8 0.00 0.00 0.00 75 1013.0
20260507082504 10 101 1.6 3.2 0.00 0.00 0.00 76 1012.8
20260507082003 9 101 1.6 4.8 0.00 0.00 0.00 76 1012.8
20260507081503 9 100 1.6 6.4 0.00 0.00 0.00 76 1012.9
20260507081003 9 94 1.6 6.4 0.00 0.00 0.00 77 1012.9
20260507080504 8 92 1.6 3.2 0.00 0.00 0.00 77 1012.9
20260507080213 9 98 1.6 4.8 0.00 0.00 0.00 79 1012.6
20260507075503 8 106 1.6 4.8 0.00 0.00 0.00 78 1012.8
20260507075003 8 105 1.6 4.8 0.00 0.00 0.00 79 1012.8
20260507074503 8 103 1.6 4.8 0.00 0.00 0.00 79 1013.0
20260507074003 8 101 1.6 4.8 0.00 0.00 0.00 80 1012.9
20260507073503 8 100 1.6 4.8 0.00 0.00 0.00 80 1012.8
20260507073216 8 98 1.6 4.8 0.00 0.00 0.00 80 1012.8
20260507072503 8 99 1.6 4.8 0.00 0.00 0.00 81 1013.0
20260507072003 8 98 1.6 4.8 0.00 0.00 0.00 81 1012.7
20260507071503 8 98 1.6 4.8 0.00 0.00 0.00 81 1012.9
20260507071004 8 106 3.2 6.4 0.00 0.00 0.00 82 1012.8
20260507070716 8 106 3.2 6.4 0.00 0.00 0.00 82 1012.8
20260507070007 8 105 1.6 4.8 0.00 0.00 0.00 82 1012.8
20260507065503 7 102 1.6 4.8 0.00 0.00 0.00 82 1012.6
20260507065003 7 102 1.6 4.8 0.00 0.00 0.00 83 1012.6
20260507064503 7 101 1.6 4.8 0.00 0.00 0.00 83 1012.6
20260507064003 7 102 1.6 3.2 0.00 0.00 0.00 84 1012.6
20260507063503 7 109 1.6 3.2 0.00 0.00 0.00 84 1012.6
20260507063003 7 109 1.6 3.2 0.00 0.00 0.00 85 1012.6
20260507062503 7 100 1.6 3.2 0.00 0.00 0.00 85 1012.6
20260507062212 7 100 1.6 3.2 0.00 0.00 0.00 85 1012.5
20260507061504 7 102 1.6 3.2 0.00 0.00 0.00 85 1012.4
20260507061003 7 95 1.6 3.2 0.00 0.00 0.00 86 1012.5
20260507060503 7 97 1.6 4.8 0.00 0.00 0.00 86 1012.6
20260507060003 6 102 1.6 4.8 0.00 0.00 0.00 86 1012.5
20260507055503 6 102 1.6 3.2 0.00 0.00 0.00 86 1012.5
20260507055003 6 106 1.6 3.2 0.00 0.00 0.00 86 1012.6
20260507054504 6 109 1.6 3.2 0.00 0.00 0.00 86 1012.5
20260507054003 6 105 1.6 3.2 0.00 0.00 0.00 86 1012.5
20260507053503 6 104 1.6 3.2 0.00 0.00 0.00 86 1012.6
20260507053003 6 99 1.6 3.2 0.00 0.00 0.00 87 1012.6
20260507052503 6 95 1.6 3.2 0.00 0.00 0.00 87 1012.6
20260507052003 6 99 1.6 3.2 0.00 0.00 0.00 87 1012.6
20260507051503 6 98 1.6 3.2 0.00 0.00 0.00 87 1012.6
20260507051003 6 96 1.6 4.8 0.00 0.00 0.00 87 1012.5
20260507050503 6 102 1.6 4.8 0.00 0.00 0.00 87 1012.6
20260507050003 6 103 1.6 3.2 0.00 0.00 0.00 87 1012.6
20260507045503 6 105 1.6 4.8 0.00 0.00 0.00 87 1012.4
20260507045004 6 106 1.6 4.8 0.00 0.00 0.00 87 1012.4
20260507044503 6 101 3.2 4.8 0.00 0.00 0.00 87 1012.3
20260507044004 6 94 3.2 4.8 0.00 0.00 0.00 87 1012.4
20260507043715 6 92 1.6 4.8 0.00 0.00 0.00 88 1012.3
20260507043003 6 93 1.6 4.8 0.00 0.00 0.00 88 1012.2
20260507042503 6 92 1.6 4.8 0.00 0.00 0.00 88 1012.2
20260507042214 6 92 1.6 4.8 0.00 0.00 0.00 88 1012.2
20260507041503 6 92 1.6 4.8 0.00 0.00 0.00 88 1012.2
20260507041215 6 93 1.6 4.8 0.00 0.00 0.00 88 1012.2
20260507040503 6 96 1.6 3.2 0.00 0.00 0.00 88 1012.1
20260507040003 6 93 1.6 3.2 0.00 0.00 0.00 88 1012.4
20260507035503 6 88 1.6 3.2 0.00 0.00 0.00 88 1012.3
20260507035003 6 92 1.6 3.2 0.00 0.00 0.00 88 1012.2
20260507034503 6 96 1.6 3.2 0.00 0.00 0.00 88 1012.2
20260507034213 6 93 1.6 3.2 0.00 0.00 0.00 88 1012.3
20260507033503 6 95 1.6 3.2 0.00 0.00 0.00 88 1012.4
20260507033003 6 97 1.6 3.2 0.00 0.00 0.00 88 1012.2
20260507032504 6 98 1.6 3.2 0.00 0.00 0.00 88 1012.3
20260507032003 6 96 1.6 3.2 0.00 0.00 0.00 88 1012.4
20260507031712 6 95 1.6 4.8 0.00 0.00 0.00 88 1012.5
20260507031003 6 98 3.2 4.8 0.00 0.00 0.00 88 1012.4
20260507030504 6 99 3.2 4.8 0.00 0.00 0.00 88 1012.6
20260507030003 6 93 3.2 6.4 0.00 0.00 0.00 88 1012.5
20260507025503 6 93 3.2 6.4 0.00 0.00 0.00 87 1012.7
20260507025003 6 98 3.2 6.4 0.00 0.00 0.00 87 1012.6
20260507024715 6 99 3.2 8.0 0.00 0.00 0.00 87 1012.7
20260507024003 6 90 3.2 8.0 0.00 0.00 0.00 87 1012.5
20260507023503 6 93 3.2 4.8 0.00 0.00 0.00 87 1012.4
20260507023003 6 92 1.6 4.8 0.00 0.00 0.00 87 1012.7
20260507022503 6 95 1.6 4.8 0.00 0.00 0.00 87 1012.7
20260507022004 6 96 1.6 4.8 0.00 0.00 0.00 87 1012.5
20260507021504 6 91 3.2 4.8 0.00 0.00 0.00 87 1012.5
20260507021216 6 92 3.2 4.8 0.00 0.00 0.00 87 1012.5
20260507020503 6 97 1.6 4.8 0.00 0.00 0.00 87 1012.5
20260507020217 6 102 1.6 4.8 0.00 0.00 0.00 87 1012.5
20260507015503 6 100 1.6 3.2 0.00 0.00 0.00 87 1012.3
20260507015004 6 100 1.6 4.8 0.00 0.00 0.00 87 1012.6
20260507014503 6 96 1.6 4.8 0.00 0.00 0.00 87 1012.4
20260507014003 6 91 3.2 4.8 0.00 0.00 0.00 87 1012.5
20260507013503 6 85 1.6 6.4 0.00 0.00 0.00 87 1012.6
20260507013003 6 91 1.6 6.4 0.00 0.00 0.00 87 1012.5
20260507012503 6 97 1.6 3.2 0.00 0.00 0.00 87 1012.5
20260507012003 6 94 1.6 3.2 0.00 0.00 0.00 87 1012.7
20260507011503 6 91 1.6 3.2 0.00 0.00 0.00 87 1012.6
20260507011003 6 81 1.6 3.2 0.00 0.00 0.00 87 1012.7
20260507010715 6 77 1.6 3.2 0.00 0.00 0.00 87 1012.8
20260507010004 6 94 1.6 3.2 0.00 0.00 0.00 87 1012.8
20260507005716 6 96 1.6 4.8 0.00 0.00 0.00 86 1012.9
20260507005003 6 92 3.2 4.8 0.00 0.00 0.00 86 1012.5
20260507004717 6 94 3.2 4.8 0.00 0.00 0.00 86 1012.6
20260507004214 6 96 1.6 4.8 0.00 0.00 0.00 86 1012.7
20260507003503 6 94 3.2 6.4 0.00 0.00 0.00 86 1012.8
20260507003003 6 88 3.2 4.8 0.00 0.00 0.00 86 1012.9
20260507002503 6 90 3.2 4.8 0.00 0.00 0.00 86 1012.7
20260507002003 6 96 1.6 4.8 0.00 0.00 0.00 86 1012.8
20260507001503 6 100 1.6 4.8 0.00 0.00 0.00 86 1012.8
20260507001212 6 98 1.6 4.8 0.00 0.00 0.00 86 1012.9
20260507000715 6 99 1.6 4.8 0.00 0.00 0.00 86 1012.9
20260507000004 6 103 3.2 4.8 0.00 0.00 0.00 85 1012.6
20260506235503 6 103 1.6 4.8 0.00 0.00 0.00 85 1012.9
20260506235003 6 100 1.6 4.8 0.00 0.00 0.00 85 1012.7
20260506234504 6 97 1.6 6.4 0.00 0.00 0.00 85 1012.9
20260506234003 6 98 1.6 6.4 0.00 0.00 0.00 85 1012.9
20260506233713 6 100 1.6 4.8 0.00 0.00 0.00 84 1012.7
20260506233216 6 96 1.6 4.8 0.00 0.00 0.00 84 1012.7
20260506232714 7 93 1.6 4.8 0.00 0.00 0.00 84 1012.9
20260506232003 7 94 1.6 4.8 0.00 0.00 0.00 84 1012.9
20260506231503 7 98 1.6 4.8 0.00 0.00 0.00 84 1012.9
20260506231003 7 92 1.6 4.8 0.00 0.00 0.00 84 1012.7
20260506230716 7 92 1.6 4.8 0.00 0.00 0.00 84 1012.9
20260506230219 7 92 1.6 4.8 0.00 0.00 0.00 83 1012.9
20260506225717 7 98 1.6 4.8 0.00 0.00 0.00 83 1012.9
20260506225215 7 95 1.6 6.4 0.00 0.00 0.00 83 1013.1
20260506224503 7 95 1.6 6.4 0.00 0.00 0.00 83 1012.9
20260506224216 7 98 1.6 4.8 0.00 0.00 0.00 83 1012.9
20260506223714 7 97 1.6 4.8 0.00 0.00 0.00 83 1012.9
20260506223217 7 95 1.6 4.8 0.00 0.00 0.00 83 1013.0
20260506222503 7 101 3.2 6.4 0.00 0.00 0.00 83 1012.9
20260506222003 7 95 3.2 6.4 0.00 0.00 0.00 82 1013.0
20260506221716 7 88 3.2 6.4 0.00 0.00 0.00 82 1013.0
20260506221003 7 92 1.6 6.4 0.00 0.00 0.00 82 1012.9
20260506220503 7 99 3.2 6.4 0.00 0.00 0.00 82 1012.9
20260506220214 7 102 3.2 4.8 0.00 0.00 0.00 81 1013.0
20260506215503 7 100 3.2 4.8 0.00 0.00 0.00 81 1013.0
20260506215004 7 107 3.2 6.4 0.00 0.00 0.00 80 1012.8
20260506214503 7 101 3.2 6.4 0.00 0.00 0.00 80 1012.7
20260506214216 7 98 3.2 6.4 0.00 0.00 0.00 80 1012.7
20260506213503 7 101 3.2 4.8 0.00 0.00 0.00 79 1012.8
20260506213003 7 107 3.2 4.8 0.00 0.00 0.00 79 1012.7
20260506212503 7 105 3.2 4.8 0.00 0.00 0.00 78 1012.4
20260506212003 8 102 1.6 4.8 0.00 0.00 0.00 78 1012.4
20260506211503 8 100 1.6 4.8 0.00 0.00 0.00 77 1012.2
20260506211003 8 101 1.6 4.8 0.00 0.00 0.00 77 1012.4
20260506210503 8 103 1.6 4.8 0.00 0.00 0.00 76 1012.1
20260506210003 8 102 1.6 4.8 0.00 0.00 0.00 76 1012.2
20260506205503 8 102 1.6 3.2 0.00 0.00 0.00 75 1012.3
20260506205003 8 106 1.6 4.8 0.00 0.00 0.00 73 1012.1
20260506204714 8 102 1.6 4.8 0.00 0.00 0.00 73 1012.2
20260506204003 9 95 3.2 6.4 0.00 0.00 0.00 73 1012.2
20260506203715 9 92 1.6 6.4 0.00 0.00 0.00 73 1012.1
20260506203003 9 94 1.6 4.8 0.00 0.00 0.00 72 1012.2
20260506202503 9 102 1.6 4.8 0.00 0.00 0.00 72 1012.2
20260506202004 9 108 1.6 4.8 0.00 0.00 0.00 72 1012.0
20260506201717 9 109 1.6 4.8 0.00 0.00 0.00 71 1012.1
20260506201003 9 104 3.2 6.4 0.00 0.00 0.00 70 1011.9
20260506200503 10 108 3.2 6.4 0.00 0.00 0.00 69 1011.9
20260506200004 10 109 1.6 4.8 0.00 0.00 0.00 69 1011.8
20260506195714 10 106 1.6 6.4 0.00 0.00 0.00 68 1011.7
20260506195003 10 108 1.6 6.4 0.00 0.00 0.00 67 1011.8
20260506194503 10 101 1.6 4.8 0.00 0.00 0.00 66 1011.9
20260506194213 10 95 1.6 4.8 0.00 0.00 0.00 65 1011.8
20260506193503 11 87 1.6 8.0 0.00 0.00 0.00 63 1011.6
20260506193003 11 89 3.2 8.0 0.00 0.00 0.00 62 1011.8
20260506192717 11 94 3.2 6.4 0.00 0.00 0.00 61 1011.8
20260506192003 11 100 1.6 6.4 0.00 0.00 0.00 59 1011.7
20260506191717 11 104 1.6 4.8 0.00 0.00 0.00 58 1011.5
20260506191003 11 104 1.6 4.8 0.00 0.00 0.00 57 1011.7
20260506190503 11 98 3.2 6.4 0.00 0.00 0.00 56 1011.6
20260506190216 11 99 3.2 6.4 0.00 0.00 0.00 57 1011.3
20260506185503 12 87 3.2 6.4 0.00 0.00 0.00 55 1011.5
20260506185003 12 84 3.2 6.4 0.00 0.00 0.00 54 1011.4
20260506184503 12 87 3.2 8.0 0.00 0.00 0.00 54 1011.4
20260506184003 12 84 3.2 8.0 0.00 0.00 0.00 52 1011.6
20260506183505 12 84 1.6 8.0 0.00 0.00 0.00 50 1011.3
20260506183004 12 77 1.6 3.2 0.00 0.00 0.00 49 1011.1
20260506182717 12 73 1.6 6.4 0.00 0.00 0.00 49 1011.3
20260506182003 13 68 1.6 6.4 0.00 0.00 0.00 48 1011.1
20260506181504 13 85 1.6 6.4 0.00 0.00 0.00 47 1010.9
20260506181216 13 89 1.6 6.4 0.00 0.00 0.00 47 1010.9
20260506180714 13 95 1.6 6.4 0.00 0.00 0.00 47 1010.9
20260506180004 13 103 1.6 4.8 0.00 0.00 0.00 47 1010.7
20260506175503 13 108 1.6 4.8 0.00 0.00 0.00 47 1010.7
20260506175213 13 101 1.6 4.8 0.00 0.00 0.00 47 1010.9
20260506174503 13 91 1.6 6.4 0.00 0.00 0.00 47 1011.0
20260506174004 13 99 1.6 6.4 0.00 0.00 0.00 46 1010.9
20260506173503 13 108 1.6 6.4 0.00 0.00 0.00 46 1010.8
20260506173003 13 99 1.6 6.4 0.00 0.00 0.00 47 1010.7
20260506172503 13 109 1.6 6.4 0.00 0.00 0.00 45 1010.7
20260506172216 14 113 1.6 6.4 0.00 0.00 0.00 44 1010.6
20260506171503 13 66 1.6 4.8 0.00 0.00 0.00 44 1010.6
20260506171003 13 13 1.6 4.8 0.00 0.00 0.00 46 1010.6
20260506170503 13 29 1.6 6.4 0.00 0.00 0.00 44 1010.5
20260506170004 13 57 3.2 8.0 0.00 0.00 0.00 45 1010.6
20260506165503 13 84 3.2 8.0 0.00 0.00 0.00 43 1010.5
20260506165003 13 89 3.2 6.4 0.00 0.00 0.00 43 1010.6
20260506164504 13 350 1.6 6.4 0.00 0.00 0.00 44 1010.5
20260506164004 13 30 1.6 6.4 0.00 0.00 0.00 45 1010.5
20260506163503 13 58 1.6 4.8 0.00 0.00 0.00 44 1010.4
20260506163004 13 110 1.6 4.8 0.00 0.00 0.00 46 1010.4
20260506162503 14 118 1.6 4.8 0.00 0.00 0.00 43 1010.5
20260506162003 14 22 1.6 9.7 0.00 0.00 0.00 43 1010.5
20260506161503 13 14 3.2 9.7 0.00 0.00 0.00 45 1010.6
20260506161003 14 94 1.6 8.0 0.00 0.00 0.00 44 1010.5
20260506160503 15 115 1.6 8.0 0.00 0.00 0.00 42 1010.5
20260506160003 14 40 1.6 8.0 0.00 0.00 0.00 43 1010.5
20260506155503 15 81 3.2 8.0 0.00 0.00 0.00 42 1010.6
20260506155214 14 56 3.2 8.0 0.00 0.00 0.00 43 1010.8
20260506154503 14 33 1.6 6.4 0.00 0.00 0.00 43 1010.7
20260506154003 13 47 1.6 6.4 0.00 0.00 0.00 43 1010.5
20260506153503 13 37 1.6 4.8 0.00 0.00 0.00 44 1010.6